Flag for France Weather past 2 weeks in Marseille, France

Now
50 °F

Low clouds.


Feels Like: 50 °F
Forecast: 52 / 63 °F
Wind: 2 mph from North

Location: Marseille / Marignane

Current Time: Mar 1, 2015 at 2:36:50 PM

Latest Report: Mar 1, 2015 at 2:00 PM


Visibility: N/A

Pressure: 30.07 "Hg

Humidity: 88%

Dew point: 46 °F

Location of MarseilleLocation

Historic Weather in Marseille — Graph

°F

Marseille temperature yesterday

Maximum temperature yesterday: 54 °F (at 1:30 PM)
Minimum temperature yesterday: 37 °F (at 11:00 PM)
Average temperature yesterday: 46 °F

Past Weeks' High & Low Weather Summary

 TemperatureHumidityPressure
High57 °F (Feb 19, 2:00 PM)94% (Feb 14, 1:30 PM)30.54 "Hg (Feb 14, 1:30 PM)
Low30 °F (Feb 26, 6:00 AM)36% (Feb 26, 1:00 PM)29.50 "Hg (Feb 22, 2:30 AM)
Average47 °F70%29.98 "Hg
* Reported Feb 14 1:00 PM — Mar 1 1:30 PM, Marseille, Weather by CustomWeather, © 2015

Note: Actual official high and low records may vary slightly from our data, if they occured in-between our weather recording intervals... More about our weather records

Advertising

Marseille weather history for previous 24 hours

 ConditionsComfort  
Time TempWeatherWind HumidityBarometerVisibility
1:30 PM
Sun, Mar 1
48 °FLow clouds.No wind87%30.09 "HgN/A
1:00 PM46 °FOvercast.No wind93%30.09 "HgN/A
12:30 PM46 °FPartly sunny.No wind93%30.09 "HgN/A
12:00 PM46 °FPartly sunny.No wind93%30.12 "Hg6 mi
11:30 AM46 °FPartly sunny.No wind87%30.12 "Hg6 mi
11:00 AM45 °FFog.No wind93%30.12 "Hg3 mi
10:30 AM45 °FFog.No wind93%30.12 "Hg3 mi
10:00 AM45 °FDrizzle. Fog.2 mph87%30.12 "Hg2 mi
9:30 AM45 °FBroken clouds.5 mph87%30.12 "HgN/A
9:00 AM43 °FLight rain. Broken clouds.No wind87%30.12 "HgN/A
8:30 AM43 °FLight rain. More clouds than sun.No wind87%30.12 "Hg5 mi
8:00 AM43 °FLight rain. More clouds than sun.No wind81%30.12 "Hg4 mi
7:30 AM43 °FLight rain. More clouds than sun.No wind81%30.09 "HgN/A
7:00 AM41 °FLight rain. Passing clouds.No wind87%30.09 "HgN/A
6:30 AM41 °FOvercast.No wind87%30.09 "HgN/A
6:00 AM41 °FOvercast.No wind87%30.09 "HgN/A
5:30 AM41 °FClear.No wind87%30.09 "Hg10 mi
5:00 AM41 °FClear.No wind81%30.09 "Hg10 mi
4:30 AM41 °FClear.No wind81%30.09 "Hg10 mi
4:00 AM41 °FClear.No wind81%30.09 "Hg10 mi
3:30 AM39 °FClear.No wind81%30.09 "HgN/A
3:00 AM39 °FClear.No wind81%30.09 "HgN/A
2:30 AM37 °FClear.No wind87%30.09 "HgN/A
2:00 AM37 °FClear.No wind81%30.09 "HgN/A
1:30 AM37 °FClear.No wind81%30.09 "HgN/A
1:00 AM37 °FClear.No wind81%30.09 "HgN/A
12:30 AM37 °FClear.No wind81%30.09 "HgN/A
12:00 AM37 °FClear.2 mph81%30.09 "Hg10 mi
11:30 PM
Sat, Feb 28
37 °FClear.2 mph81%30.09 "Hg10 mi
11:00 PM37 °FClear.3 mph81%30.12 "Hg10 mi
10:30 PM39 °FClear.5 mph81%30.09 "Hg10 mi
10:00 PM39 °FClear.3 mph81%30.12 "Hg10 mi
9:30 PM41 °FClear.5 mph76%30.12 "Hg10 mi
9:00 PM45 °FClear.6 mph71%30.09 "Hg10 mi
8:30 PM46 °FClear.No wind66%30.09 "Hg10 mi
8:00 PM45 °FClear.5 mph66%30.09 "Hg10 mi
7:30 PM46 °FClear.7 mph66%30.09 "Hg10 mi
7:00 PM50 °FPassing clouds.5 mph58%30.07 "HgN/A
6:30 PM50 °FClear.7 mph58%30.07 "Hg10 mi
6:00 PM52 °FSunny.6 mph50%30.07 "Hg10 mi
5:30 PM52 °FSunny.7 mph54%30.04 "Hg10 mi
5:00 PM54 °FSunny.7 mph47%30.04 "Hg10 mi
4:30 PM54 °FSunny.12 mph51%30.04 "Hg10 mi
4:00 PM54 °FSunny.7 mph54%30.04 "Hg10 mi
3:30 PM52 °FSunny.10 mph58%30.04 "Hg10 mi
3:00 PM54 °FSunny.9 mph51%30.04 "Hg10 mi
2:30 PM54 °FSunny.10 mph51%30.04 "Hg10 mi
2:00 PM54 °FSunny.9 mph54%30.04 "Hg10 mi
Weather by CustomWeather, © 2015

See weather overviewHow to use our weather pages